Jackson, MI

1:53 AM EST on November 18, 2019 (GMT -0500)
Jackson County-Reynolds

Weather History for KJXN - August, 2019

Change the Weather History Date:

Friday, August 16, 2019

  Actual Average Record
Temperature  
Mean Temperature 71 °F 70 °F  
Max Temperature 83 °F 80 °F 93 °F (1984)
Min Temperature 59 °F 59 °F 40 °F (1979)
Degree Days  
Heating Degree Days 0 1  
Month to date heating degree days 0 12  
Since 1 June heating degree days 58 78  
Since 1 July heating degree days 0 23  
Cooling Degree Days 6 5  
Month to date cooling degree days 91 95  
Year to date cooling degree days 496 460  
Since 1 June cooling degree days 486 423  
Growing Degree Days 20 (Base 50)    
Moisture  
Dew Point 60 °F    
Average Humidity 72    
Maximum Humidity 100    
Minimum Humidity 43    
Precipitation  
Precipitation T in 0.12 in 3.60 in (2016)
Month to date precipitation 0.22 1.84  
Year to date precipitation 20.41 19.29  
Sea Level Pressure  
Sea Level Pressure 29.97 in    
Wind  
Wind Speed 5 mph (SSW)    
Max Wind Speed 16 mph    
Max Gust Speed 25 mph    
Visibility 7 miles    
Events Fog    
T = Trace of Precipitation, MM = Missing Value Source: NWS Daily Summary

Daily Weather History Graph

Daily Weather History Graph

Search for Another Location

Airport or City:

Astronomy

Aug. 16, 2019 Rise Set
Actual Time 6:46 AM EDT 8:37 PM EDT
Civil Twilight 6:15 AM EDT 9:07 PM EDT
Nautical Twilight 5:39 AM EDT 9:44 PM EDT
Astronomical Twilight 4:59 AM EDT 10:23 PM EDT
Moon 9:35 PM EDT (8/16) 7:36 AM EDT (8/16)
Length of Visible Light 14h 51m
Length of Day
13h 51m
Full, 99% of the Moon is Illuminated
Aug 16
Full
Aug 23
Last Quarter
Aug 30
New
Sep 5
First Quarter
Sep 14
Full

Hourly Weather History & Observations

Time (EDT) Temp. Heat Index Dew Point Humidity Pressure Visibility Wind Dir Wind Speed Gust Speed Precip Events Conditions
12:56 AM 61.0 °F - 60.1 °F 97% 29.99 in 10.0 mi NW 3.5 mph - N/A   Clear
1:17 AM 60.1 °F - 59.0 °F 96% 30.01 in 9.0 mi Calm Calm - N/A   Mostly Cloudy
1:56 AM 62.1 °F - 60.1 °F 93% 30.00 in 10.0 mi NW 3.5 mph - N/A   Overcast
2:05 AM 62.1 °F - 60.1 °F 93% 30.01 in 10.0 mi Calm Calm - N/A   Overcast
2:56 AM 61.0 °F - 60.1 °F 97% 29.99 in 9.0 mi Calm Calm - N/A   Mostly Cloudy
3:56 AM 59.0 °F - 57.9 °F 96% 29.99 in 4.0 mi Calm Calm - N/A   Partly Cloudy
4:09 AM 60.1 °F - 59.0 °F 96% 29.99 in 5.0 mi NW 3.5 mph - N/A   Mostly Cloudy
4:20 AM 60.1 °F - 60.1 °F 100% 29.99 in 1.8 mi NW 3.5 mph - N/A   Overcast
4:30 AM 60.1 °F - 60.1 °F 100% 29.99 in 0.5 mi Calm Calm - N/A Fog Fog
4:40 AM 59.0 °F - 59.0 °F 100% 29.99 in 0.2 mi Variable 3.5 mph - N/A Fog Fog
4:56 AM 59.0 °F - 59.0 °F 100% 29.98 in 0.5 mi Calm Calm - N/A Fog Fog
5:56 AM 59.0 °F - 59.0 °F 100% 29.98 in 1.0 mi North 5.8 mph - N/A   Overcast
6:38 AM 59.0 °F - 59.0 °F 100% 29.99 in 0.8 mi North 3.5 mph - N/A   Overcast
6:45 AM 59.0 °F - 59.0 °F 100% 30.00 in 1.8 mi Calm Calm - N/A   Overcast
6:56 AM 59.0 °F - 59.0 °F 100% 30.00 in 0.5 mi Calm Calm - N/A Fog Fog
7:56 AM 59.0 °F - 59.0 °F 100% 30.00 in 0.2 mi Calm Calm - N/A Fog Fog
8:15 AM 60.1 °F - 59.0 °F 96% 30.00 in 1.0 mi NNE 3.5 mph - N/A   Overcast
8:56 AM 60.1 °F - 60.1 °F 100% 30.01 in 2.0 mi Calm Calm - N/A   Overcast
9:56 AM 61.0 °F - 60.1 °F 97% 30.01 in 3.0 mi Variable 3.5 mph - N/A   Overcast
10:24 AM 64.9 °F - 60.1 °F 84% 30.02 in 10.0 mi Calm Calm - N/A   Mostly Cloudy
10:56 AM 66.9 °F - 61.0 °F 81% 30.02 in 10.0 mi Variable 3.5 mph - N/A   Mostly Cloudy
11:03 AM 66.0 °F - 61.0 °F 84% 30.02 in 10.0 mi Calm Calm - N/A   Partly Cloudy
11:56 AM 73.0 °F - - N/A% 29.99 in 10.0 mi Variable 4.6 mph - N/A   Clear
12:56 PM 73.9 °F - 57.0 °F 55% 29.99 in 10.0 mi North - - N/A   Partly Cloudy
1:56 PM 77.0 °F - 55.0 °F 47% 29.97 in 10.0 mi SSW 8.1 mph - N/A   Clear
2:56 PM 80.1 °F 80.4 °F 57.0 °F 45% 29.96 in 10.0 mi SSW 8.1 mph - N/A   Partly Cloudy
3:56 PM 82.9 °F 82.6 °F 57.9 °F 42% 29.94 in 10.0 mi SW 9.2 mph 18.4 mph N/A   Mostly Cloudy
4:56 PM 80.1 °F 80.6 °F 57.9 °F 47% 29.93 in 10.0 mi South 8.1 mph - N/A   Scattered Clouds
5:56 PM 81.0 °F 81.3 °F 59.0 °F 47% 29.91 in 10.0 mi South 8.1 mph - N/A   Partly Cloudy
6:56 PM 79.0 °F - 61.0 °F 54% 29.91 in 10.0 mi SSW 6.9 mph - N/A   Clear
7:56 PM 77.0 °F - 61.0 °F 58% 29.90 in 10.0 mi SSE 8.1 mph - N/A   Partly Cloudy
8:56 PM 75.0 °F - 62.1 °F 64% 29.90 in 10.0 mi SSE 5.8 mph - N/A   Mostly Cloudy
9:56 PM 73.0 °F - 62.1 °F 68% 29.91 in 10.0 mi SSE 5.8 mph - N/A   Partly Cloudy
10:56 PM 72.0 °F - 62.1 °F 71% 29.91 in 10.0 mi SSE 6.9 mph - N/A   Mostly Cloudy
11:56 PM 73.0 °F - 63.0 °F 71% 29.89 in 10.0 mi South 10.4 mph - N/A   Scattered Clouds